STARLINK-31979, 59964

Orbit data source: Space-Track

STARLINK-31979, 59964 is a payload satellite owned by SpaceX/Seattle (US) in LEO that was launched on Wed, 05 Jun 2024 UTC via an FALCON 9 launch vehicle from the Air Force Eastern Test Range (AFETR). Payload-class satellites include a variety of spacecraft equipped with specific instruments for various scientific and technological missions. These include communications satellites like Starlink; space stations such as the ISS; scientific satellites like the Hubble; Earth observation satellites from companies like Planet Labs, Umbra, and HawkEye 360; GPS; miniature CubeSats for education and research; and military/defense satellites.

Loading next visibility...
Identifier
59964, 2024-107V
Orbit
LEO
Country
Flag of USUS
Related business
Manufacturer
SpaceX/Seattle
Mission
Operational Commercial Communications
Bus & Motor
STARLINK V2M, Unknown motor
Mass
730 kg wet, ~700 kg dry
Launch date (UTC)
2024-06-05 (2 years ago)
Launch vehicle
FALCON 9
Launch site
Air Force Eastern Test Range (AFETR)
Object type
Payload
Rocket body
Debris
Shape & HBR
Box + 2 Pan, 17.7 m
Radar Cross Section
33.884 m², Large (>1 m²)

Expand to show TLE details & history
Last TLE update: 3 days ago

TLE from 3 days ago
0 STARLINK-31979
1 59964U 24107V   26170.78409906  .00001338  00000-0  50730-4 0  9990
2 59964  53.1617 310.8818 0001087  89.2077 270.9050 15.34397282115381
Epoch: 2026-06-19T18:49Z
TLE epoch observation values (Epoch: 2026-06-19T18:49:06.158Z)
Latitude
-0.00005°
Longitude
120.59799°
Altitude
463.601 km
Speed
7.636 km/s
True Right ascension
20h 43m 31s
True Declination
0° 00' 00"
Sunlit
Object was in full shadow at epoch
Visualization orbit readout
Latitude
Unknown
Longitude
Unknown
Altitude
Unknown
Speed
Unknown
Apparent Right ascension
Unknown
Apparent Declination
Unknown
Sunlit
N/A
Visualization observer readout
Local Sidereal Time
21:40:33
Azimuth
Unknown
Elevation
Unknown
Doppler factor
Unknown
Orbital elements
Apogee altitude
463.712 km
Perigee altitude
462.224 km
Semi-major axis
6,841.105 km
Eccentricity
0.00011
Inclination
53.1617°
RAAN
310.8818°
Arg. of periapsis
89.2077°
True anomaly
270.89255°
Mean anomaly
270.905°
Eccentric anomaly
270.89877°
Mean motion
3.83578 °/min
Orbital period
93.85 mins
BSTAR
0.00005073
Loading maneuver chart data...
Computing Atmospheric mass density...
Loading historical data...
Loading historical data...
Loading historical data...
Loading historical data...
Loading historical data...
Loading historical data...
Loading historical data...

Documentation

Showing up to 5 results
|